Find WHDW 17-04

NORAD ID: 67239 Int'l Des: 2025-311 Owner: ZXW Country: CN Constellation: xingwang operational
LEOCIRCULAR

当前视图

正在加载3D地球...

关于 WHDW 17-04

正在加载描述...

即将过境

Passes for default location (London). Set your location on the main map for personalized predictions.

高度历史

Loading altitude history...

两行轨道根数

1 67239U 25311D 26145.39903602 -.00000093 00000-0 66316-4 0 9998
2 67239 50.0035 197.8065 0001044 249.1273 110.9487 13.29322420 20308
Epoch: May 25, 2026 • Age: 23 hours

当前状态

高度 1163.7 km
速度 7.27 km/s
星下点 -44.85°S, 123.79°E
发射日期 Dec 25, 2025
运行时间 0.4 years
类型 other

技术详情

分类 Payload
质量 700.00 kg
干质量 700.00 kg
总质量 700.00 kg
长度 3.00 m
直径 1.00 m
跨度 10.00 m
形状 Box + 2 Pan
制造商 CAST
平台类型 Xingwang C
阶段状态 In Orbit
所有者/国家 ZXW/CN

Most Searched